Location: Unspecified
(0.0000°N, 0.0000°E)
Time: 08:24:45
(UTC+02:00)

Haruka - Visible Passes

Search period start: 02 October 2014 00:00
Search period end: 12 October 2014 00:00
Orbit: 521 x 21257 km, 31.2° (Epoch: 29 September)

Date Brightness Start Highest point End Pass type
(mag) Time Alt. Az. Time Alt. Az. Time Alt. Az.
02 Oct 7.0 21:00:37 10° NW 00:36:13 48° SW 00:37:05 48° SW visible
03 Oct 5.9 07:25:58 10° SSE 07:28:02 12° SE 07:30:53 10° ESE visible
04 Oct 7.5 00:50:18 10° WNW 01:43:07 25° WSW 01:43:07 25° WSW visible
04 Oct 7.7 15:13:33 10° WNW 19:27:04 63° NE 20:30:09 10° ESE visible
05 Oct 7.3 16:31:32 10° WNW 21:03:19 80° NE 21:38:39 20° ESE visible
06 Oct 6.9 17:56:03 10° NW 22:26:35 80° SW 22:44:37 38° SE visible
07 Oct 6.8 19:34:22 10° NW 23:42:10 57° SW 23:50:35 47° S visible
08 Oct 7.1 22:06:52 10° WNW 00:54:18 34° SW 00:56:34 34° SW visible
10 Oct 7.6 01:48:35 10° WSW 02:02:37 15° SW 02:02:37 15° SW visible
10 Oct 7.6 15:35:40 10° WNW 19:57:36 75° NE 20:49:23 10° ESE visible
11 Oct 7.2 16:55:43 10° NW 21:27:12 86° SW 21:58:03 16° SE visible
